#timestamp,LO_Frequency,Hit,StdDev 
1530820815.3,286047000.4,N
1530820835.1,286047000.0,N
1530820855.9,286046999.9,N
1530820875.7,286047001.2,N
1530820895.6,286047000.4,N
1530820915.4,286047001.0,N
1530820935.2,286047000.7,N
1530820955.1,286046999.0,N
1530820956.0,286046999.0,N
1530820975.8,286046999.0,N
1530820995.7,286046999.4,N
1530821015.5,286046998.2,N
1530821035.3,286046998.3,N
1530821055.2,286046998.4,N
1530821075.9,286047001.2,N
1530821095.7,286046998.1,N
1530821115.6,286047001.0,N
1530821135.4,286047000.9,N
1530821155.3,286046998.1,N
1530821175.1,286046998.8,N
1530821176.0,286046998.8,N
1530821195.8,286046998.4,N
1530821215.7,286046998.4,N
1530821235.5,286046998.3,N
1530821255.3,286047000.8,N
1530821275.2,286046998.8,N
1530821295.0,286046998.3,N
1530821295.9,286046998.3,N
1530821315.8,286046996.6,Y
1530821335.6,286046998.8,P
1530821355.4,286046998.1,P
1530821375.3,286047000.3,N
1530821395.1,286047002.7,Y
1530821415.9,286047002.0,P
1530821435.7,286047002.4,N
1530821455.5,286046999.7,N
1530821475.4,286047002.6,N
1530821495.2,286047004.4,Y
1530821515.1,286047000.2,P
1530821516.0,286047000.2,N
1530821535.8,286046999.8,N
1530821555.6,286047002.4,Y
1530821575.5,286047000.1,P
1530821595.3,286046999.9,N
1530821615.1,286047000.2,N
1530821635.9,286046999.9,N
1530821655.7,286047000.3,N
1530821675.6,286047000.5,N
1530821695.4,286047000.4,N
1530821715.2,286047002.4,Y
1530821735.1,286047002.8,P
1530821736.0,286047002.8,N
1530821755.8,286047002.4,N
1530821775.7,286046999.9,N
1530821795.5,286047002.4,N
1530821815.3,286046999.8,N
1530821835.2,286047000.9,N
1530821855.0,286047000.4,N
1530821855.9,286047000.4,N
1530821875.7,286046998.6,N
1530821895.6,286046998.3,N
1530821915.4,286046998.2,N
1530821935.3,286046998.1,N
1530821955.1,286046998.6,N
1530821956.0,286046998.6,N
1530821975.8,286047001.0,N
1530821995.7,286046998.6,N
1530822015.5,286047000.7,N
1530822035.3,286046998.7,N
1530822055.2,286047000.8,N
1530822075.0,286047001.2,N
1530822075.9,286047001.2,N
1530822095.8,286047000.9,N
1530822115.6,286046998.6,N
1530822135.4,286046998.3,N
1530822155.3,286046998.2,N
1530822175.1,286046998.2,N
1530822195.8,286047000.6,N
1530822215.7,286047000.9,N
1530822235.5,286047000.1,N
1530822255.4,286047000.3,N
1530822275.2,286046999.7,N
1530822295.0,286046999.8,N
1530822295.9,286046999.8,N
1530822315.8,286047000.3,N
1530822335.6,286047000.7,N
1530822355.4,286046998.5,N
1530822375.3,286046998.5,N
1530822395.1,286047001.1,N
1530822415.9,286047001.2,N
1530822435.7,286047001.2,N
1530822455.5,286047000.6,N
1530822475.4,286047002.8,N
1530822495.2,286047001.0,N
1530822515.0,286047001.0,N
1530822515.9,286047001.0,N
1530822535.8,286047002.7,N
1530822555.6,286047002.8,N
1530822575.5,286047002.8,N
1530822595.3,286047000.6,N
1530822615.1,286046999.8,N
1530822635.9,286047001.0,N
1530822655.7,286046999.9,N
1530822675.5,286047000.2,N
1530822695.4,286047001.2,N
1530822715.2,286047001.2,N
1530822735.1,286047000.0,N
1530822736.0,286047000.0,N
1530822755.8,286047001.1,N
1530822775.6,286047001.2,N
1530822795.5,286046998.2,N
1530822815.3,286047001.0,N
1530822835.1,286047001.0,N
1530822855.9,286046998.6,N
1530822875.7,286046999.4,N
1530822895.6,286046999.2,N
1530822915.4,286046997.3,N
1530822935.2,286046997.8,N
1530822955.1,286046997.1,N
1530822956.0,286046997.1,N
1530822975.8,286046997.2,N
1530822995.6,286046997.6,N
1530823015.5,286046997.4,N
1530823035.3,286046997.3,N
1530823055.2,286046997.4,N
1530823075.9,286046998.0,N
1530823095.7,286046997.5,N
1530823115.6,286046997.3,N
1530823135.4,286046996.6,N
1530823155.2,286046997.4,N
1530823175.1,286046997.3,N
1530823176.0,286046997.3,N
1530823195.8,286046996.5,N
1530823215.7,286046997.1,N
1530823235.5,286046997.6,N
1530823255.3,286046995.8,N
1530823275.2,286046998.0,N
1530823295.0,286046997.5,N
1530823295.9,286046997.5,N
1530823315.8,286046997.7,N
1530823335.6,286046997.6,N
1530823355.4,286046997.8,N
1530823375.3,286046994.9,Y
1530823395.1,286046996.8,P
1530823415.9,286046997.9,P
1530823435.7,286046997.7,P
1530823455.5,286046994.9,Y
1530823475.4,286046998.3,P
1530823495.2,286047001.1,N
1530823515.0,286046998.4,N
1530823515.9,286046998.4,N
1530823535.8,286046998.1,N
1530823555.6,286047001.1,N
1530823575.5,286047000.2,N
1530823595.3,286046998.1,N
1530823615.1,286047001.2,N
1530823635.9,286047000.4,N
1530823655.7,286047000.8,N
1530823675.5,286046999.9,N
1530823695.4,286047000.4,N
1530823715.2,286047000.4,N
1530823735.1,286047001.2,N
1530823736.0,286047001.2,N
1530823755.8,286047000.4,N
1530823775.6,286046998.4,N
1530823795.5,286046998.1,N
1530823815.3,286047000.9,N
1530823835.1,286046998.2,N
1530823855.9,286046998.5,N
1530823875.7,286046998.3,N
1530823895.6,286047000.7,N
1530823915.4,286046998.4,N
1530823935.2,286047000.7,N
1530823955.1,286047000.3,N
1530823956.0,286047000.3,N
1530823975.8,286046998.6,N
1530823995.9,286046998.5,N
1530824015.7,286046998.2,N
1530824035.5,286046998.7,N
1530824055.4,286047001.0,N
1530824075.2,286047000.3,N
1530824095.1,286047002.8,N
1530824096.0,286047002.8,N
1530824115.8,286046999.7,N
1530824135.6,286046999.9,N
1530824155.5,286046998.9,N
1530824175.3,286046998.1,N
1530824195.1,286046998.5,N
1530824215.9,286046996.5,N
1530824235.7,286047001.1,N
1530824255.6,286047001.1,N
1530824275.4,286047000.9,N
1530824295.2,286047000.9,N
1530824315.1,286047000.8,N
1530824316.0,286047000.8,N
1530824335.8,286047000.1,N
1530824355.6,286046999.7,N
1530824375.5,286047002.7,N
1530824395.3,286047000.3,N
